Track STARLINK-31281 now! 10-day predictions STARLINK-31281 is classified as:
1 59077U 24041D 24325.79526506 -.00001725 00000-0 -56128-4 0 9998 2 59077 43.0017 104.6036 0001726 263.6194 96.4460 15.25903070 41873